Terminal Aerodrome Forecast
Issued by NWS

Current Version | Previous Version | Graphics & Text | Print | Product List | Glossary On
Versions: 1 2 3 4 5 6 7 8 9 10 11 12 13 14 15 16 17 18 19 20 21 22 23
000
FTUS41 KPBZ 132300
TAFMGW
TAF
KMGW 132320Z 1400/1424 VRB05KT P6SM SCT035
     FM140200 34005KT P6SM FEW040
      TEMPO 1408/1412 3SM BR
     FM141500 VRB03KT P6SM SCT050=

USA.gov is the U.S. government's official web portal to all federal, state and local government web resources and services.